,,Stat5,,Stat1,,Stat2,,Stat3,,Stat4,,Wind1,,Wind1,
time,status,PA1M_AVG,status,PR1M_SUM,status,RH1M_AVG,status,SR1M_AVG,status,TA1M_AVG,status,W1dAve1m,status,W1sAve1m,
2003-06-13, 00:00:00,VALID,919.155,VALID,0,VALID,97.1582,VALID,-0.0849042,VALID,19.8378,VALID,93,VALID,1.04338,
2003-06-13, 00:01:00,VALID,919.123,VALID,0,VALID,97.2472,VALID,-0.118866,VALID,19.8512,VALID,88,VALID,1.07538,
2003-06-13, 00:02:01,VALID,919.102,VALID,0,VALID,97.3146,VALID,-0.101885,VALID,19.8512,VALID,88,VALID,0.824093,
2003-06-13, 00:03:00,VALID,919.08,VALID,0,VALID,97.3413,VALID,-0.101885,VALID,19.8545,VALID,88,VALID,0.857897,
2003-06-13, 00:04:00,VALID,919.072,VALID,0,VALID,97.438,VALID,-0.101885,VALID,19.8445,VALID,71,VALID,0.959152,
2003-06-13, 00:05:01,VALID,919.041,VALID,0,VALID,97.499,VALID,-0.101885,VALID,19.8415,VALID,56,VALID,1.05327,
2003-06-13, 00:06:00,VALID,919.043,VALID,0,VALID,97.588,VALID,-0.0849042,VALID,19.8219,VALID,35,VALID,0.950087,
2003-06-13, 00:07:00,VALID,919.024,VALID,0,VALID,97.7037,VALID,-0.101885,VALID,19.8187,VALID,27,VALID,0.807366,
2003-06-13, 00:08:01,VALID,919.024,VALID,0,VALID,97.8284,VALID,-0.101885,VALID,19.8259,VALID,20,VALID,0.909091,
2003-06-13, 00:09:01,VALID,919.012,VALID,0,VALID,97.8754,VALID,-0.101885,VALID,19.8088,VALID,10,VALID,0.889992,
2003-06-13, 00:10:01,VALID,918.994,VALID,0,VALID,97.9085,VALID,-0.101885,VALID,19.8063,VALID,9,VALID,1.54986,
2003-06-13, 00:11:01,VALID,918.976,VALID,0,VALID,98.0038,VALID,-0.0849042,VALID,19.774,VALID,22,VALID,1.90672,
2003-06-13, 00:12:00,VALID,918.941,VALID,0,VALID,98.1641,VALID,-0.0509425,VALID,19.7497,VALID,34,VALID,1.76302,
2003-06-13, 00:13:00,VALID,918.92,VALID,0,VALID,98.2836,VALID,-0.0339617,VALID,19.7435,VALID,14,VALID,1.9375,
2003-06-13, 00:14:00,VALID,918.876,VALID,0,VALID,98.44,VALID,-0.0339617,VALID,19.7144,VALID,34,VALID,1.68513,
2003-06-13, 00:15:00,VALID,918.845,VALID,0,VALID,98.571,VALID,-0.0169808,VALID,19.7146,VALID,27,VALID,1.50887,
2003-06-13, 00:16:01,VALID,918.801,VALID,0,VALID,98.6651,VALID,-0.0169808,VALID,19.7144,VALID,35,VALID,1.5733,
2003-06-13, 00:17:01,VALID,918.743,VALID,0,VALID,98.7948,VALID,-0.0169808,VALID,19.7112,VALID,28,VALID,1.33049,
2003-06-13, 00:18:00,VALID,918.698,VALID,0,VALID,99.0173,VALID,0,VALID,19.7631,VALID,24,VALID,2.1174,
2003-06-13, 00:19:01,VALID,918.647,VALID,0,VALID,99.1292,VALID,-0.0169808,VALID,19.8085,VALID,37,VALID,1.39821,
2003-06-13, 00:20:00,VALID,918.612,VALID,0,VALID,99.1508,VALID,0,VALID,19.8147,VALID,33,VALID,1.48438,
2003-06-13, 00:21:00,VALID,918.578,VALID,0,VALID,99.1902,VALID,-0.0169808,VALID,19.8045,VALID,36,VALID,1.37922,
2003-06-13, 00:22:01,VALID,918.555,VALID,0,VALID,99.2309,VALID,-0.0169808,VALID,19.8274,VALID,68,VALID,0.817325,
2003-06-13, 00:23:01,VALID,918.516,VALID,0,VALID,99.1928,VALID,0.0169808,VALID,19.8239,VALID,55,VALID,0.930634,
2003-06-13, 00:24:00,VALID,918.506,VALID,0,VALID,99.2424,VALID,0,VALID,19.8242,VALID,20,VALID,0.909505,
2003-06-13, 00:25:00,VALID,918.511,VALID,0,VALID,99.292,VALID,-0.0169808,VALID,19.8271,VALID,30,VALID,0.738393,
2003-06-13, 00:26:01,VALID,918.503,VALID,0,VALID,99.3098,VALID,0,VALID,19.8371,VALID,31,VALID,1.08428,
2003-06-13, 00:27:01,VALID,918.498,VALID,0,VALID,99.3212,VALID,-0.0169808,VALID,19.8408,VALID,47,VALID,0.599662,
2003-06-13, 00:28:01,VALID,918.491,VALID,0,VALID,99.3034,VALID,0,VALID,19.8403,VALID,50,VALID,0.487362,
2003-06-13, 00:29:01,VALID,918.482,VALID,0,VALID,99.3174,VALID,-0.0169808,VALID,19.8475,VALID,72,VALID,0.572443,
2003-06-13, 00:30:00,VALID,918.469,VALID,0,VALID,99.3327,VALID,0,VALID,19.8306,VALID,71,VALID,0.315538,
2003-06-13, 00:31:00,VALID,918.461,VALID,0,VALID,99.3517,VALID,0,VALID,19.8309,VALID,73,VALID,0.134375,
2003-06-13, 00:32:00,VALID,918.462,VALID,0,VALID,99.3644,VALID,0,VALID,19.8373,VALID,73,VALID,0,
2003-06-13, 00:33:00,VALID,918.454,VALID,0,VALID,99.3734,VALID,0,VALID,19.8468,VALID,95,VALID,0.0888936,
2003-06-13, 00:34:01,VALID,918.464,VALID,0,VALID,99.3568,VALID,0,VALID,19.8537,VALID,209,VALID,0.600873,
2003-06-13, 00:35:01,VALID,918.481,VALID,0,VALID,99.3149,VALID,0,VALID,19.8217,VALID,213,VALID,0.700758,
2003-06-13, 00:36:00,VALID,918.483,VALID,0,VALID,99.2627,VALID,0,VALID,19.7991,VALID,213,VALID,0.925998,
2003-06-13, 00:37:01,VALID,918.495,VALID,0,VALID,99.2398,VALID,-0.0169808,VALID,19.7628,VALID,218,VALID,0.662054,
2003-06-13, 00:38:00,VALID,918.485,VALID,0,VALID,99.2525,VALID,0.0169808,VALID,19.7273,VALID,210,VALID,0.732008,
2003-06-13, 00:39:00,VALID,918.487,VALID,0,VALID,99.1953,VALID,0,VALID,19.705,VALID,230,VALID,1.08066,
2003-06-13, 00:40:01,VALID,918.472,VALID,0,VALID,99.1699,VALID,0,VALID,19.6724,VALID,210,VALID,0.596048,
2003-06-13, 00:41:01,VALID,918.479,VALID,0,VALID,99.161,VALID,0,VALID,19.6528,VALID,187,VALID,0.748343,
2003-06-13, 00:42:00,VALID,918.466,VALID,0,VALID,99.1178,VALID,0,VALID,19.6407,VALID,188,VALID,0.675998,
2003-06-13, 00:43:00,VALID,918.435,VALID,0,VALID,99.1356,VALID,0,VALID,19.6243,VALID,209,VALID,0.536607,
2003-06-13, 00:44:01,VALID,918.417,VALID,0,VALID,99.1305,VALID,0,VALID,19.6243,VALID,201,VALID,0.261364,
2003-06-13, 00:45:01,VALID,918.392,VALID,0,VALID,99.1241,VALID,-0.0169808,VALID,19.6315,VALID,196,VALID,0.200591,
2003-06-13, 00:46:01,VALID,918.369,VALID,0,VALID,99.0834,VALID,0,VALID,19.6253,VALID,198,VALID,0.155101,
2003-06-13, 00:47:01,VALID,918.351,VALID,0,VALID,99.044,VALID,-0.0169808,VALID,19.6116,VALID,151,VALID,0.369555,
2003-06-13, 00:48:00,VALID,918.329,VALID,0,VALID,98.9639,VALID,0,VALID,19.5987,VALID,99,VALID,0.527995,
2003-06-13, 00:49:00,VALID,918.314,VALID,0,VALID,98.9652,VALID,0,VALID,19.5828,VALID,92,VALID,0.704911,
2003-06-13, 00:50:00,VALID,918.289,VALID,0,VALID,98.9766,VALID,-0.0339617,VALID,19.5629,VALID,83,VALID,0.676136,
2003-06-13, 00:51:00,VALID,918.257,VALID,0,VALID,99.0033,VALID,-0.0169808,VALID,19.5734,VALID,68,VALID,0.844806,
2003-06-13, 00:52:01,VALID,918.238,VALID,0,VALID,99.0516,VALID,0,VALID,19.5729,VALID,52,VALID,0.720818,
2003-06-13, 00:53:01,VALID,918.214,VALID,0,VALID,99.0529,VALID,-0.0169808,VALID,19.5796,VALID,62,VALID,0.808002,
2003-06-13, 00:54:01,VALID,918.195,VALID,0,VALID,99.0555,VALID,0,VALID,19.5627,VALID,61,VALID,0.774306,
2003-06-13, 00:55:01,VALID,918.181,VALID,0,VALID,99.0682,VALID,0.0169808,VALID,19.5855,VALID,59,VALID,0.397098,
2003-06-13, 00:56:00,VALID,918.145,VALID,0,VALID,99.0478,VALID,0,VALID,19.6022,VALID,63,VALID,0.445786,
2003-06-13, 00:57:00,VALID,918.124,VALID,0,VALID,99.0224,VALID,-0.0169808,VALID,19.5955,VALID,72,VALID,0.338049,
2003-06-13, 00:58:01,VALID,918.109,VALID,0,VALID,99.0351,VALID,0,VALID,19.6118,VALID,74,VALID,0.463465,
2003-06-13, 00:59:01,VALID,918.085,VALID,0,VALID,99.0211,VALID,0,VALID,19.6054,VALID,115,VALID,0.509943,
2003-06-13, 01:00:01,VALID,918.057,VALID,0,VALID,98.9804,VALID,0,VALID,19.6143,VALID,131,VALID,0.688151,
2003-06-13, 01:01:01,VALID,918.049,VALID,0,VALID,98.9575,VALID,-0.0339617,VALID,19.631,VALID,123,VALID,0.886384,
2003-06-13, 01:02:01,VALID,918.045,VALID,0,VALID,98.8927,VALID,-0.0169808,VALID,19.6469,VALID,100,VALID,1.0928,
2003-06-13, 01:03:01,VALID,918.032,VALID,0,VALID,98.7732,VALID,-0.0169808,VALID,19.6439,VALID,85,VALID,1.17124,
2003-06-13, 01:04:01,VALID,918.027,VALID,0,VALID,98.7159,VALID,0,VALID,19.6439,VALID,77,VALID,1.07514,
2003-06-13, 01:05:01,VALID,918.019,VALID,0,VALID,98.6702,VALID,0,VALID,19.6342,VALID,71,VALID,1.15601,
2003-06-13, 01:06:01,VALID,918.009,VALID,0,VALID,98.6485,VALID,0,VALID,19.6282,VALID,69,VALID,1.03364,
2003-06-13, 01:07:01,VALID,918.002,VALID,0,VALID,98.6511,VALID,-0.0169808,VALID,19.6213,VALID,68,VALID,0.893304,
2003-06-13, 01:08:01,VALID,917.975,VALID,0,VALID,98.6167,VALID,0,VALID,19.6148,VALID,67,VALID,0.785748,
2003-06-13, 01:09:01,VALID,917.952,VALID,0,VALID,98.5633,VALID,0,VALID,19.6116,VALID,80,VALID,1.01858,
2003-06-13, 01:10:01,VALID,917.939,VALID,0,VALID,98.4998,VALID,0,VALID,19.5925,VALID,97,VALID,1.14384,
2003-06-13, 01:11:01,VALID,917.925,VALID,0,VALID,98.5227,VALID,-0.0339617,VALID,19.5736,VALID,100,VALID,0.657434,
2003-06-13, 01:12:01,VALID,917.92,VALID,0,VALID,98.5862,VALID,-0.101885,VALID,19.5617,VALID,119,VALID,0.356554,
2003-06-13, 01:13:01,VALID,917.904,VALID,0,VALID,98.6841,VALID,-0.118866,VALID,19.5644,VALID,140,VALID,1.29241,
2003-06-13, 01:14:01,VALID,917.893,VALID,0,VALID,98.7401,VALID,-0.135847,VALID,19.5686,VALID,136,VALID,1.08026,
2003-06-13, 01:15:01,VALID,917.891,VALID,0,VALID,98.7795,VALID,-0.101885,VALID,19.552,VALID,118,VALID,1.00992,
2003-06-13, 01:16:01,VALID,917.884,VALID,0,VALID,98.8711,VALID,-0.135847,VALID,19.5455,VALID,115,VALID,0.6875,
2003-06-13, 01:17:01,VALID,917.871,VALID,0,VALID,98.9168,VALID,-0.101885,VALID,19.5555,VALID,94,VALID,0.759706,
2003-06-13, 01:18:01,VALID,917.869,VALID,0,VALID,98.9308,VALID,-0.135847,VALID,19.5292,VALID,67,VALID,0.638238,
2003-06-13, 01:19:00,VALID,917.859,VALID,0,VALID,98.9792,VALID,-0.101885,VALID,19.5262,VALID,47,VALID,0.500446,
2003-06-13, 01:20:00,VALID,917.859,VALID,0,VALID,99.0109,VALID,-0.118866,VALID,19.5292,VALID,65,VALID,0.514678,
2003-06-13, 01:21:00,VALID,917.847,VALID,0,VALID,99.0491,VALID,-0.0849042,VALID,19.5259,VALID,53,VALID,0.951647,
2003-06-13, 01:22:00,VALID,917.846,VALID,0,VALID,99.0745,VALID,-0.135847,VALID,19.5363,VALID,51,VALID,1.18497,
2003-06-13, 01:23:00,VALID,917.845,VALID,0,VALID,99.0504,VALID,-0.118866,VALID,19.52,VALID,48,VALID,0.792614,
2003-06-13, 01:24:00,VALID,917.82,VALID,0,VALID,99.0567,VALID,-0.101885,VALID,19.5098,VALID,74,VALID,1.06771,
2003-06-13, 01:25:00,VALID,917.815,VALID,0,VALID,99.0605,VALID,-0.101885,VALID,19.5197,VALID,94,VALID,1.04643,
2003-06-13, 01:26:00,VALID,917.806,VALID,0,VALID,99.0885,VALID,-0.118866,VALID,19.513,VALID,98,VALID,1.04427,
2003-06-13, 01:27:00,VALID,917.788,VALID,0,VALID,99.1241,VALID,-0.0339617,VALID,19.5344,VALID,89,VALID,1.22171,
2003-06-13, 01:28:00,VALID,917.781,VALID,0,VALID,99.0275,VALID,-0.0339617,VALID,19.5443,VALID,83,VALID,0.767923,
2003-06-13, 01:29:00,VALID,917.764,VALID,0,VALID,98.9919,VALID,-0.0679233,VALID,19.5376,VALID,82,VALID,0.931581,
2003-06-13, 01:30:00,VALID,917.752,VALID,0,VALID,98.9486,VALID,-0.0679233,VALID,19.5349,VALID,84,VALID,0.723524,
2003-06-13, 01:31:00,VALID,917.753,VALID,0,VALID,98.9308,VALID,-0.0849042,VALID,19.5349,VALID,59,VALID,0.979241,
2003-06-13, 01:32:00,VALID,917.727,VALID,0,VALID,98.9461,VALID,-0.0509425,VALID,19.5383,VALID,71,VALID,1.34446,
2003-06-13, 01:33:00,VALID,917.723,VALID,0,VALID,98.9219,VALID,-0.0679233,VALID,19.551,VALID,68,VALID,1.07897,
2003-06-13, 01:34:00,VALID,917.701,VALID,0,VALID,98.9029,VALID,-0.0679233,VALID,19.554,VALID,76,VALID,0.990349,
2003-06-13, 01:35:00,VALID,917.675,VALID,0,VALID,98.8698,VALID,-0.0169808,VALID,19.557,VALID,91,VALID,1.19508,
2003-06-13, 01:36:00,VALID,917.639,VALID,0,VALID,98.838,VALID,-0.0509425,VALID,19.5701,VALID,112,VALID,0.898003,
2003-06-13, 01:37:00,VALID,917.621,VALID,0,VALID,98.8367,VALID,-0.0509425,VALID,19.557,VALID,107,VALID,0.64933,
2003-06-13, 01:38:00,VALID,917.602,VALID,0,VALID,98.8456,VALID,-0.0169808,VALID,19.5699,VALID,108,VALID,0.881629,
2003-06-13, 01:39:00,VALID,917.582,VALID,0,VALID,98.8431,VALID,-0.0169808,VALID,19.5801,VALID,116,VALID,1.07454,
2003-06-13, 01:40:00,VALID,917.572,VALID,0,VALID,98.8189,VALID,-0.0169808,VALID,19.5736,VALID,102,VALID,0.693934,
2003-06-13, 01:41:00,VALID,917.57,VALID,0,VALID,98.8444,VALID,-0.0339617,VALID,19.5734,VALID,98,VALID,1.05066,
2003-06-13, 01:42:00,VALID,917.552,VALID,0,VALID,98.8278,VALID,-0.0339617,VALID,19.56,VALID,100,VALID,0.84592,
2003-06-13, 01:43:00,VALID,917.539,VALID,0,VALID,98.8189,VALID,-0.0169808,VALID,19.5667,VALID,113,VALID,0.948214,
2003-06-13, 01:44:00,VALID,917.523,VALID,0,VALID,98.8418,VALID,-0.0339617,VALID,19.5602,VALID,105,VALID,1.04688,
2003-06-13, 01:45:00,VALID,917.513,VALID,0,VALID,98.8456,VALID,-0.0339617,VALID,19.5537,VALID,108,VALID,0.953547,
2003-06-13, 01:46:00,VALID,917.501,VALID,0,VALID,98.8202,VALID,-0.0509425,VALID,19.5473,VALID,110,VALID,0.899127,
2003-06-13, 01:47:00,VALID,917.479,VALID,0,VALID,98.866,VALID,-0.0339617,VALID,19.5475,VALID,122,VALID,1.18348,
2003-06-13, 01:48:00,VALID,917.451,VALID,0,VALID,98.8978,VALID,-0.0169808,VALID,19.5371,VALID,122,VALID,1.21419,
2003-06-13, 01:49:00,VALID,917.427,VALID,0,VALID,98.8978,VALID,0,VALID,19.5505,VALID,119,VALID,0.65558,
2003-06-13, 01:50:00,VALID,917.403,VALID,0,VALID,98.8863,VALID,0,VALID,19.5403,VALID,122,VALID,1.02202,
2003-06-13, 01:51:00,VALID,917.372,VALID,0,VALID,98.88,VALID,0,VALID,19.5411,VALID,137,VALID,0.962627,
2003-06-13, 01:52:00,VALID,917.342,VALID,0,VALID,98.8965,VALID,-0.0169808,VALID,19.5217,VALID,147,VALID,1.47909,
2003-06-13, 01:53:00,VALID,917.32,VALID,0,VALID,98.9181,VALID,-0.0339617,VALID,19.5187,VALID,140,VALID,1.60251,
2003-06-13, 01:54:00,VALID,917.303,VALID,0,VALID,98.9652,VALID,-0.0339617,VALID,19.5056,VALID,142,VALID,1.51194,
2003-06-13, 01:55:00,VALID,917.298,VALID,0,VALID,99.0097,VALID,-0.0339617,VALID,19.4927,VALID,141,VALID,1.36094,
2003-06-13, 01:56:00,VALID,917.292,VALID,0,VALID,99.0427,VALID,-0.0169808,VALID,19.4892,VALID,141,VALID,1.24455,
2003-06-13, 01:57:00,VALID,917.276,VALID,0,VALID,99.0593,VALID,0.0849042,VALID,19.4877,VALID,137,VALID,1.25232,
2003-06-13, 01:58:00,VALID,917.27,VALID,0,VALID,99.0911,VALID,0.101885,VALID,19.4813,VALID,137,VALID,0.940028,
2003-06-13, 01:59:00,VALID,917.25,VALID,0,VALID,99.1254,VALID,0.0509425,VALID,19.4815,VALID,141,VALID,1.06652,
2003-06-13, 02:00:00,VALID,917.228,VALID,0,VALID,99.1254,VALID,0.0849042,VALID,19.4845,VALID,145,VALID,1.04926,
2003-06-13, 02:01:00,VALID,917.209,VALID,0,VALID,99.1508,VALID,0.0339617,VALID,19.4813,VALID,142,VALID,1.37411,
2003-06-13, 02:02:00,VALID,917.183,VALID,0,VALID,99.1635,VALID,0.0509425,VALID,19.4815,VALID,138,VALID,1.45597,
2003-06-13, 02:03:00,VALID,917.149,VALID,0,VALID,99.1572,VALID,0.0679233,VALID,19.5143,VALID,141,VALID,1.51436,
2003-06-13, 02:04:00,VALID,917.131,VALID,0,VALID,99.1178,VALID,0.0679233,VALID,19.5299,VALID,139,VALID,1.6721,
2003-06-13, 02:05:00,VALID,917.07,VALID,0,VALID,99.0389,VALID,0.0679233,VALID,19.5463,VALID,147,VALID,1.71737,
2003-06-13, 02:06:00,VALID,917.07,VALID,0,VALID,98.9982,VALID,0.0849042,VALID,19.5557,VALID,146,VALID,1.54253,
2003-06-13, 02:07:00,VALID,917.037,VALID,0,VALID,98.9143,VALID,0.0679233,VALID,19.5821,VALID,143,VALID,1.84888,
2003-06-13, 02:08:00,VALID,917.021,VALID,0,VALID,98.8355,VALID,0.0679233,VALID,19.5915,VALID,151,VALID,1.47088,
2003-06-13, 02:09:00,VALID,916.999,VALID,0,VALID,98.7566,VALID,0.0849042,VALID,19.5947,VALID,145,VALID,1.79561,
2003-06-13, 02:10:00,VALID,916.979,VALID,0,VALID,98.6613,VALID,0.0509425,VALID,19.591,VALID,136,VALID,1.40349,
2003-06-13, 02:11:00,VALID,916.967,VALID,0,VALID,98.6104,VALID,0.0509425,VALID,19.5947,VALID,147,VALID,1.37311,
2003-06-13, 02:12:00,VALID,916.961,VALID,0,VALID,98.5659,VALID,-0.0169808,VALID,19.5925,VALID,154,VALID,1.74891,
2003-06-13, 02:13:00,VALID,916.96,VALID,0,VALID,98.5341,VALID,-0.0339617,VALID,19.6061,VALID,149,VALID,1.75446,
2003-06-13, 02:14:00,VALID,916.974,VALID,0,VALID,98.4769,VALID,0,VALID,19.5987,VALID,148,VALID,1.91903,
2003-06-13, 02:15:00,VALID,916.977,VALID,0,VALID,98.4362,VALID,-0.0509425,VALID,19.5994,VALID,153,VALID,1.64274,
2003-06-13, 02:16:00,VALID,916.979,VALID,0,VALID,98.4171,VALID,-0.0509425,VALID,19.593,VALID,153,VALID,1.58686,
2003-06-13, 02:17:00,VALID,916.981,VALID,0,VALID,98.4069,VALID,-0.0679233,VALID,19.5868,VALID,130,VALID,1.20028,
2003-06-13, 02:18:00,VALID,916.978,VALID,0,VALID,98.398,VALID,-0.0679233,VALID,19.5739,VALID,146,VALID,1.22005,
2003-06-13, 02:19:00,VALID,916.986,VALID,0,VALID,98.3968,VALID,-0.101885,VALID,19.5739,VALID,150,VALID,0.754464,
2003-06-13, 02:20:00,VALID,916.988,VALID,0,VALID,98.4108,VALID,-0.0849042,VALID,19.5771,VALID,157,VALID,0.859375,
2003-06-13, 02:21:00,VALID,916.973,VALID,0,VALID,98.4184,VALID,-0.0169808,VALID,19.5575,VALID,166,VALID,0.824958,
2003-06-13, 02:22:00,VALID,916.97,VALID,0,VALID,98.4196,VALID,-0.0509425,VALID,19.5545,VALID,174,VALID,0.844439,
2003-06-13, 02:23:00,VALID,916.982,VALID,0,VALID,98.4184,VALID,-0.0169808,VALID,19.5513,VALID,175,VALID,0.433239,
2003-06-13, 02:24:00,VALID,916.967,VALID,0,VALID,98.4286,VALID,-0.0849042,VALID,19.5413,VALID,172,VALID,0.783854,
2003-06-13, 02:25:00,VALID,916.959,VALID,0,VALID,98.4286,VALID,-0.0509425,VALID,19.5515,VALID,151,VALID,1.35067,
2003-06-13, 02:26:00,VALID,916.957,VALID,0,VALID,98.3751,VALID,0,VALID,19.551,VALID,151,VALID,0.795691,
2003-06-13, 02:27:00,VALID,916.94,VALID,0,VALID,98.3205,VALID,-0.0339617,VALID,19.5505,VALID,161,VALID,0.770481,
2003-06-13, 02:28:00,VALID,916.915,VALID,0,VALID,98.2861,VALID,0,VALID,19.5505,VALID,150,VALID,0.685202,
2003-06-13, 02:29:00,VALID,916.909,VALID,0,VALID,98.2671,VALID,-0.0339617,VALID,19.554,VALID,133,VALID,0.393466,
2003-06-13, 02:30:00,VALID,916.906,VALID,0,VALID,98.2365,VALID,-0.0679233,VALID,19.5642,VALID,186,VALID,0.585069,
2003-06-13, 02:31:00,VALID,916.898,VALID,0,VALID,98.2073,VALID,-0.0169808,VALID,19.5741,VALID,170,VALID,0.133259,
2003-06-13, 02:32:00,VALID,916.9,VALID,0,VALID,98.1679,VALID,-0.0509425,VALID,19.5803,VALID,166,VALID,0,
2003-06-13, 02:33:00,VALID,916.917,VALID,0,VALID,98.1157,VALID,-0.0169808,VALID,19.5736,VALID,177,VALID,0.184544,
2003-06-13, 02:34:00,VALID,916.938,VALID,0,VALID,98.0801,VALID,-0.0509425,VALID,19.5771,VALID,178,VALID,0.472656,
2003-06-13, 02:35:00,VALID,916.953,VALID,0,VALID,98.0305,VALID,-0.0339617,VALID,19.5838,VALID,183,VALID,0.692945,
2003-06-13, 02:36:00,VALID,916.963,VALID,0,VALID,98,VALID,-0.0339617,VALID,19.5964,VALID,186,VALID,0.679253,
2003-06-13, 02:37:00,VALID,916.985,VALID,0,VALID,97.9593,VALID,-0.0509425,VALID,19.593,VALID,174,VALID,0.530804,
2003-06-13, 02:38:00,VALID,916.999,VALID,0,VALID,97.8894,VALID,-0.0509425,VALID,19.5835,VALID,174,VALID,0.674716,
2003-06-13, 02:39:00,VALID,917.008,VALID,0,VALID,97.864,VALID,-0.0339617,VALID,19.5838,VALID,166,VALID,0.495355,
2003-06-13, 02:40:00,VALID,917.005,VALID,0,VALID,97.8512,VALID,-0.0509425,VALID,19.5674,VALID,163,VALID,0.596507,
2003-06-13, 02:41:00,VALID,917.011,VALID,0,VALID,97.8296,VALID,-0.0849042,VALID,19.5642,VALID,172,VALID,0.554451,
2003-06-13, 02:42:00,VALID,916.998,VALID,0,VALID,97.8347,VALID,-0.0679233,VALID,19.5609,VALID,154,VALID,0.638455,
2003-06-13, 02:43:00,VALID,916.992,VALID,0,VALID,97.8563,VALID,-0.0169808,VALID,19.5406,VALID,146,VALID,0.549777,
2003-06-13, 02:44:00,VALID,916.987,VALID,0,VALID,97.8614,VALID,-0.0339617,VALID,19.5418,VALID,137,VALID,0.463068,
2003-06-13, 02:45:00,VALID,916.984,VALID,0,VALID,97.8805,VALID,-0.0339617,VALID,19.5354,VALID,148,VALID,0.69848,
2003-06-13, 02:46:00,VALID,916.979,VALID,0,VALID,97.9097,VALID,-0.0679233,VALID,19.5259,VALID,154,VALID,1.11972,
2003-06-13, 02:47:00,VALID,916.96,VALID,0,VALID,97.9415,VALID,-0.0849042,VALID,19.5157,VALID,154,VALID,0.756866,
2003-06-13, 02:48:00,VALID,916.956,VALID,0,VALID,97.9848,VALID,-0.0849042,VALID,19.5125,VALID,161,VALID,0.645616,
2003-06-13, 02:49:00,VALID,916.949,VALID,0,VALID,98.0433,VALID,-0.101885,VALID,19.5063,VALID,155,VALID,0.619643,
2003-06-13, 02:50:00,VALID,916.953,VALID,0,VALID,98.0229,VALID,-0.0509425,VALID,19.4897,VALID,168,VALID,1.00142,
2003-06-13, 02:51:00,VALID,916.966,VALID,0,VALID,98.0318,VALID,-0.0679233,VALID,19.4899,VALID,171,VALID,1.16026,
2003-06-13, 02:52:00,VALID,916.966,VALID,0,VALID,98.0458,VALID,-0.0509425,VALID,19.4867,VALID,169,VALID,1.13396,
2003-06-13, 02:53:00,VALID,916.973,VALID,0,VALID,98.0407,VALID,-0.0679233,VALID,19.4996,VALID,172,VALID,0.713778,
2003-06-13, 02:54:00,VALID,916.966,VALID,0,VALID,97.9975,VALID,0,VALID,19.5125,VALID,171,VALID,1.22504,
2003-06-13, 02:55:00,VALID,916.97,VALID,0,VALID,97.9504,VALID,-0.0339617,VALID,19.5123,VALID,150,VALID,1.13125,
2003-06-13, 02:56:00,VALID,916.981,VALID,0,VALID,97.8818,VALID,-0.0509425,VALID,19.5187,VALID,151,VALID,1.20502,
2003-06-13, 02:57:00,VALID,916.981,VALID,0,VALID,97.8296,VALID,-0.0679233,VALID,19.5287,VALID,155,VALID,1.08509,
2003-06-13, 02:58:00,VALID,916.993,VALID,0,VALID,97.8131,VALID,-0.0339617,VALID,19.5383,VALID,152,VALID,0.443704,
2003-06-13, 02:59:00,VALID,916.992,VALID,0,VALID,97.7648,VALID,-0.0339617,VALID,19.5416,VALID,149,VALID,0.756629,
2003-06-13, 03:00:00,VALID,917.013,VALID,0,VALID,97.7266,VALID,-0.0339617,VALID,19.5413,VALID,145,VALID,0.930122,
2003-06-13, 03:01:00,VALID,917.03,VALID,0,VALID,97.6694,VALID,-0.0169808,VALID,19.5346,VALID,136,VALID,1.08705,
2003-06-13, 03:02:00,VALID,917.033,VALID,0,VALID,97.6274,VALID,-0.0339617,VALID,19.5351,VALID,125,VALID,0.544034,
2003-06-13, 03:03:00,VALID,917.034,VALID,0,VALID,97.5893,VALID,-0.0169808,VALID,19.5249,VALID,126,VALID,0.566934,
2003-06-13, 03:04:00,VALID,917.035,VALID,0,VALID,97.6325,VALID,-0.0339617,VALID,19.5155,VALID,107,VALID,0.872243,
2003-06-13, 03:05:00,VALID,917.029,VALID,0,VALID,97.7101,VALID,-0.0169808,VALID,19.5123,VALID,113,VALID,1.04995,
2003-06-13, 03:06:00,VALID,917.038,VALID,0,VALID,97.6745,VALID,0,VALID,19.519,VALID,125,VALID,0.625,
2003-06-13, 03:07:00,VALID,917.046,VALID,0,VALID,97.7419,VALID,0,VALID,19.5026,VALID,135,VALID,1.13192,
2003-06-13, 03:08:00,VALID,917.046,VALID,0,VALID,97.7737,VALID,0,VALID,19.5123,VALID,143,VALID,0.686553,
2003-06-13, 03:09:00,VALID,917.051,VALID,0,VALID,97.78,VALID,-0.0509425,VALID,19.5061,VALID,136,VALID,0.691934,
2003-06-13, 03:10:00,VALID,917.045,VALID,0,VALID,97.8004,VALID,-0.0509425,VALID,19.5095,VALID,120,VALID,0.983686,
2003-06-13, 03:11:00,VALID,917.067,VALID,0,VALID,97.761,VALID,-0.0339617,VALID,19.5023,VALID,99,VALID,0.633286,
2003-06-13, 03:12:00,VALID,917.084,VALID,0,VALID,97.7254,VALID,-0.0509425,VALID,19.5031,VALID,98,VALID,0.4375,
2003-06-13, 03:13:00,VALID,917.096,VALID,0,VALID,97.6974,VALID,-0.0509425,VALID,19.5028,VALID,118,VALID,0.937054,
2003-06-13, 03:14:00,VALID,917.095,VALID,0,VALID,97.6808,VALID,-0.0339617,VALID,19.5123,VALID,116,VALID,0.849669,
2003-06-13, 03:15:00,VALID,917.101,VALID,0,VALID,97.6109,VALID,-0.0169808,VALID,19.5321,VALID,109,VALID,0.864654,
2003-06-13, 03:16:00,VALID,917.11,VALID,0,VALID,97.5689,VALID,-0.0339617,VALID,19.5157,VALID,120,VALID,0.895221,
2003-06-13, 03:17:00,VALID,917.107,VALID,0,VALID,97.527,VALID,-0.0509425,VALID,19.5155,VALID,119,VALID,0.722775,
2003-06-13, 03:18:00,VALID,917.099,VALID,0,VALID,97.5283,VALID,-0.0169808,VALID,19.5125,VALID,116,VALID,0.887587,
2003-06-13, 03:19:00,VALID,917.083,VALID,0,VALID,97.5168,VALID,-0.0509425,VALID,19.5093,VALID,109,VALID,0.879464,
2003-06-13, 03:20:00,VALID,917.071,VALID,0,VALID,97.5015,VALID,0,VALID,19.5125,VALID,104,VALID,0.907907,
2003-06-13, 03:21:00,VALID,917.042,VALID,0,VALID,97.527,VALID,-0.0339617,VALID,19.4894,VALID,109,VALID,1.10621,
2003-06-13, 03:22:00,VALID,917.028,VALID,0,VALID,97.5028,VALID,-0.0509425,VALID,19.5023,VALID,97,VALID,0.933824,
2003-06-13, 03:23:00,VALID,917.003,VALID,0,VALID,97.4787,VALID,-0.0339617,VALID,19.5095,VALID,78,VALID,0.875237,
2003-06-13, 03:24:00,VALID,917.002,VALID,0,VALID,97.41,VALID,-0.0679233,VALID,19.5262,VALID,71,VALID,0.992839,
2003-06-13, 03:25:00,VALID,916.988,VALID,0,VALID,97.3184,VALID,-0.0679233,VALID,19.5125,VALID,74,VALID,1.15848,
2003-06-13, 03:26:00,VALID,916.973,VALID,0,VALID,97.3299,VALID,-0.0169808,VALID,19.4899,VALID,69,VALID,1.10346,
2003-06-13, 03:27:00,VALID,916.953,VALID,0,VALID,97.4049,VALID,0.0169808,VALID,19.4666,VALID,83,VALID,1.12965,
2003-06-13, 03:28:00,VALID,916.939,VALID,0,VALID,97.41,VALID,-0.0339617,VALID,19.4636,VALID,69,VALID,0.886489,
2003-06-13, 03:29:00,VALID,916.917,VALID,0,VALID,97.3553,VALID,0.0169808,VALID,19.4539,VALID,74,VALID,0.72017,
2003-06-13, 03:30:00,VALID,916.915,VALID,0,VALID,97.3693,VALID,0.0169808,VALID,19.4348,VALID,66,VALID,1.16732,
2003-06-13, 03:31:00,VALID,916.905,VALID,0,VALID,97.3947,VALID,0,VALID,19.4125,VALID,55,VALID,1.24442,
2003-06-13, 03:32:00,VALID,916.904,VALID,0,VALID,97.4151,VALID,0,VALID,19.3931,VALID,60,VALID,1.09091,
2003-06-13, 03:33:00,VALID,916.899,VALID,0,VALID,97.5613,VALID,0.0169808,VALID,19.3631,VALID,56,VALID,0.895059,
2003-06-13, 03:34:00,VALID,916.907,VALID,0,VALID,97.5995,VALID,0,VALID,19.3501,VALID,69,VALID,0.849265,